Regional Weather Roundup
Issued by NWS Nashville, TN

Home | Current Version | Previous Version | Text Only | Print | Product List | Glossary On
Versions: 1 2 3 4 5 6 7 8 9 10 11 12 13 14 15 16 17 18 19 20 21 22 23 24 25 26 27 28 29 30 31 32 33 34 35 36 37 38 39 40 41 42 43 44 45 46 47 48 49 50
000
ASUS44 KOHX 301115
RWROHX
MIDDLE TENNESSEE HOURLY WEATHER ROUNDUP
NATIONAL WEATHER SERVICE NASHVILLE TN
600 AM CDT MON MAR 30 2015

NOTE: "FAIR" INDICATES FEW OR NO CLOUDS BELOW 12,000 FEET WITH
NO SIGNIFICANT WEATHER AND/OR OBSTRUCTIONS TO VISIBILITY.

* THESE REPORTS ARE NOT UNDER NWS QUALITY CONTROL AND MAY NOT
  REPORT WEATHER SUCH AS PRECIPITATION AND FOG.


TNZ005>011-023>034-057-059-062>066-078-080-301200
...NORTHERN MIDDLE TENNESSEE...

CITY           SKY/WX    TMP DP  RH WIND       PRES   REMARKS
CLARKSVILLE    CLEAR     46  43  89 W5        30.11R
CROSSVILLE     CLOUDY    46  43  89 W5        30.07R
GALLATIN         N/A     43  43 100 CALM      30.10R
NASHVILLE      PTCLDY    47  45  93 W5        30.10R
PORTLAND       PTCLDY    46  43  87 W5        30.08R
SMYRNA         FOG       42  42 100 CALM      30.11R VSB<1/4
SPARTA           N/A     41  41 100 CALM      30.07S VSB 1/2
$$
TNZ056-058-060-061-075>077-079-093>097-301200
...SOUTHERN MIDDLE TENNESSEE...

CITY           SKY/WX    TMP DP  RH WIND       PRES   REMARKS
COLUMBIA       CLOUDY   N/A N/A N/A CALM      30.09R VSB 0
LEWISBURG      CLOUDY    43  42  96 CALM      30.10R VSB 1/4
MCMINNVILLE    MOCLDY    45  45 100 SW3       30.09R VSB 1/2
MURFREESBORO   PTCLDY    46  45  97 CALM      30.09R
SHELBYVILLE    CLOUDY    46  46 100 CALM      30.12R VSB 1/4
TULLAHOMA      MOCLDY    46  46 100 CALM      30.11R
WINCHESTER     CLOUDY    50  48  93 CALM      30.10R
$$


...KEY TO REMARKS...
VSB - VISIBILITY IN MILES
WCI - WIND CHILL INDEX
HX  - HEAT INDEX



USA.gov is the U.S. government's official web portal to all federal, state and local government web resources and services.